time, Switch, Flow(0), Analog(2)
yyyy/mm/dd HH:MM:SS.fff, True=FILTERED|False=TOTAL, L/min, V
2023/06/11 04:00:01.080, True, 4.643, 0.139620
2023/06/11 04:00:01.575, True, 4.718, 0.141909
2023/06/11 04:00:02.080, True, 4.646, 0.142977
2023/06/11 04:00:02.584, True, 4.638, 0.140154
2023/06/11 04:00:03.080, True, 4.722, 0.141833
2023/06/11 04:00:03.584, True, 3.979, 0.142138
2023/06/11 04:00:04.080, True, 2.357, 0.140917
2023/06/11 04:00:04.584, True, 1.660, 0.140002
2023/06/11 04:00:05.088, True, 0.994, 0.141375
2023/06/11 04:00:05.592, True, 0.663, 0.141375
2023/06/11 04:00:06.088, True, 0.674, 0.142290
2023/06/11 04:00:06.591, True, 0.996, 0.142672
2023/06/11 04:00:07.095, True, 0.663, 0.141604
2023/06/11 04:00:07.592, True, 0.674, 0.141833
2023/06/11 04:00:08.096, True, 0.663, 0.142061
2023/06/11 04:00:08.600, True, 0.995, 0.142061
2023/06/11 04:00:09.096, True, 0.674, 0.139544
2023/06/11 04:00:09.600, True, 0.663, 0.140841
2023/06/11 04:00:10.104, True, 0.664, 0.143511
2023/06/11 04:00:10.600, True, 0.674, 0.140917
2023/06/11 04:00:11.104, True, 0.663, 0.142443
2023/06/11 04:00:11.600, True, 0.674, 0.141527
2023/06/11 04:00:12.104, True, 0.663, 0.144350
2023/06/11 04:00:12.608, True, 0.663, 0.144045
2023/06/11 04:00:13.104, True, 0.674, 0.139544
2023/06/11 04:00:13.608, True, 0.664, 0.141909
2023/06/11 04:00:14.111, True, 0.663, 0.140307
2023/06/11 04:00:14.616, True, 0.663, 0.138476
2023/06/11 04:00:15.112, True, 0.674, 0.142290
2023/06/11 04:00:15.616, True, 0.995, 0.144350
2023/06/11 04:00:16.112, True, 0.674, 0.142519
2023/06/11 04:00:16.616, True, 0.663, 0.140154
2023/06/11 04:00:17.120, True, 0.663, 0.142367
2023/06/11 04:00:17.616, True, 0.674, 0.140459
2023/06/11 04:00:18.120, True, 0.663, 0.140383
2023/06/11 04:00:18.623, True, 0.663, 0.141909
2023/06/11 04:00:19.120, True, 0.674, 0.139696
2023/06/11 04:00:19.624, True, 0.663, 0.141451
2023/06/11 04:00:20.120, True, 1.011, 0.141070
2023/06/11 04:00:20.623, True, 0.663, 0.142519
2023/06/11 04:00:21.127, True, 0.663, 0.143664
2023/06/11 04:00:21.624, True, 0.674, 0.142901
2023/06/11 04:00:22.128, True, 0.663, 0.142290
2023/06/11 04:00:22.632, True, 0.663, 0.142748
2023/06/11 04:00:23.128, True, 0.674, 0.142214
2023/06/11 04:00:23.632, True, 0.663, 0.140841
2023/06/11 04:00:24.136, True, 0.663, 0.141146
2023/06/11 04:00:24.632, True, 0.674, 0.141909
2023/06/11 04:00:25.136, True, 0.663, 0.141833
2023/06/11 04:00:25.640, True, 0.995, 0.139773
2023/06/11 04:00:26.136, True, 0.674, 0.140536
2023/06/11 04:00:26.640, True, 0.663, 0.140612
2023/06/11 04:00:27.144, True, 0.663, 0.141527
2023/06/11 04:00:27.639, True, 0.674, 0.141604
2023/06/11 04:00:28.144, True, 0.663, 0.140688
2023/06/11 04:00:28.647, True, 0.663, 0.139467
2023/06/11 04:00:29.144, True, 0.674, 0.140383
2023/06/11 04:00:29.647, True, 0.664, 0.139696
2023/06/11 04:00:30.152, True, 0.662, 0.140459
2023/06/11 04:00:30.648, True, 0.674, 0.140459
2023/06/11 04:00:31.152, True, 0.663, 0.142290
2023/06/11 04:00:31.656, True, 0.995, 0.140993
2023/06/11 04:00:32.160, True, 0.663, 0.140383
2023/06/11 04:00:32.656, True, 0.674, 0.140841
2023/06/11 04:00:33.160, True, 0.664, 0.142367
2023/06/11 04:00:33.664, True, 0.662, 0.140230
2023/06/11 04:00:34.160, True, 0.674, 0.141604
2023/06/11 04:00:34.664, True, 0.663, 0.142290
2023/06/11 04:00:35.168, True, 0.663, 0.140383
2023/06/11 04:00:35.664, True, 0.674, 0.141604
2023/06/11 04:00:36.167, True, 0.664, 0.142138
2023/06/11 04:00:36.672, True, 0.994, 0.141070
2023/06/11 04:00:37.168, True, 0.674, 0.139849
2023/06/11 04:00:37.672, True, 0.664, 0.142596
2023/06/11 04:00:38.176, True, 0.662, 0.140993
2023/06/11 04:00:38.672, True, 0.674, 0.141070
2023/06/11 04:00:39.176, True, 0.663, 0.139162
2023/06/11 04:00:39.680, True, 0.665, 0.139620
2023/06/11 04:00:40.176, True, 0.673, 0.140764
2023/06/11 04:00:40.680, True, 0.664, 0.141680
2023/06/11 04:00:41.183, True, 0.994, 0.142596
2023/06/11 04:00:41.680, True, 0.674, 0.140764
2023/06/11 04:00:42.184, True, 0.664, 0.140230
2023/06/11 04:00:42.688, True, 0.663, 0.141222
2023/06/11 04:00:43.184, True, 0.673, 0.143664
2023/06/11 04:00:43.688, True, 0.663, 0.143053
2023/06/11 04:00:44.192, True, 0.663, 0.139773
2023/06/11 04:00:44.688, True, 0.674, 0.141299
2023/06/11 04:00:45.192, True, 0.663, 0.139849
2023/06/11 04:00:45.696, True, 0.995, 0.142061
2023/06/11 04:00:46.200, True, 0.663, 0.141680
2023/06/11 04:00:46.696, True, 0.674, 0.139162
2023/06/11 04:00:47.200, True, 0.663, 0.141527
2023/06/11 04:00:47.704, True, 0.663, 0.140154
2023/06/11 04:00:48.200, True, 0.674, 0.140154
2023/06/11 04:00:48.704, True, 0.663, 0.142519
2023/06/11 04:00:49.208, True, 0.663, 0.138552
2023/06/11 04:00:49.704, True, 0.674, 0.139239
2023/06/11 04:00:50.208, True, 0.663, 0.139620
2023/06/11 04:00:50.712, True, 0.663, 0.141222
2023/06/11 04:00:51.208, True, 0.674, 0.142748
2023/06/11 04:00:51.712, True, 0.663, 0.139162
2023/06/11 04:00:52.216, True, 0.663, 0.140536
2023/06/11 04:00:52.712, True, 0.674, 0.141985
2023/06/11 04:00:53.216, True, 0.663, 0.140764
2023/06/11 04:00:53.720, True, 0.663, 0.141070
2023/06/11 04:00:54.224, True, 0.663, 0.140612
2023/06/11 04:00:54.720, True, 1.011, 0.140230
2023/06/11 04:00:55.224, True, 0.664, 0.141985
2023/06/11 04:00:55.728, True, 0.662, 0.141985
2023/06/11 04:00:56.232, True, 0.663, 0.140841
2023/06/11 04:00:56.728, True, 0.674, 0.140459
2023/06/11 04:00:57.232, True, 0.664, 0.142061
2023/06/11 04:00:57.735, True, 0.662, 0.142367
2023/06/11 04:00:58.232, True, 0.674, 0.140764
2023/06/11 04:00:58.736, True, 0.663, 0.142138
2023/06/11 04:00:59.240, True, 0.663, 0.141527
2023/06/11 04:00:59.736, True, 0.674, 0.140841
2023/06/11 04:01:00.240, True, 0.995, 0.140536
2023/06/11 04:01:00.744, True, 0.663, 0.141299
2023/06/11 04:01:01.240, True, 0.674, 0.140459
2023/06/11 04:01:01.744, True, 0.663, 0.141833
2023/06/11 04:01:02.248, True, 0.663, 0.142138
2023/06/11 04:01:02.744, True, 0.674, 0.141375
2023/06/11 04:01:03.248, True, 0.663, 0.141527
2023/06/11 04:01:03.751, True, 0.664, 0.141680
2023/06/11 04:01:04.247, True, 0.673, 0.142901
2023/06/11 04:01:04.752, True, 0.663, 0.142061
2023/06/11 04:01:05.256, True, 0.663, 0.141527
2023/06/11 04:01:05.752, True, 1.011, 0.138399
2023/06/11 04:01:06.256, True, 0.663, 0.139467
2023/06/11 04:01:06.760, True, 0.663, 0.139620
2023/06/11 04:01:07.255, True, 0.674, 0.142596
2023/06/11 04:01:07.760, True, 0.663, 0.141680
2023/06/11 04:01:08.264, True, 0.663, 0.142138
2023/06/11 04:01:08.760, True, 1.011, 0.143587
2023/06/11 04:01:09.264, True, 0.663, 0.141070
2023/06/11 04:01:09.768, True, 0.663, 0.140688
2023/06/11 04:01:10.263, True, 0.674, 0.141527
2023/06/11 04:01:10.767, True, 0.663, 0.140993
2023/06/11 04:01:11.272, True, 0.663, 0.140536
2023/06/11 04:01:11.767, True, 0.674, 0.142138
2023/06/11 04:01:12.271, True, 0.663, 0.142367
2023/06/11 04:01:12.767, True, 0.674, 0.142061
2023/06/11 04:01:13.272, True, 0.663, 0.140536
2023/06/11 04:01:13.776, True, 0.663, 0.139162
2023/06/11 04:01:14.272, True, 0.674, 0.140841
2023/06/11 04:01:14.775, True, 0.663, 0.141909
2023/06/11 04:01:15.280, True, 0.996, 0.141756
2023/06/11 04:01:15.775, True, 0.673, 0.140307
2023/06/11 04:01:16.280, True, 0.663, 0.142443
2023/06/11 04:01:16.784, True, 0.663, 0.139315
2023/06/11 04:01:17.280, True, 0.675, 0.141909
2023/06/11 04:01:17.783, True, 0.662, 0.140917
2023/06/11 04:01:18.287, True, 0.664, 0.141756
2023/06/11 04:01:18.784, True, 0.673, 0.142443
2023/06/11 04:01:19.287, True, 0.662, 0.143587
2023/06/11 04:01:19.791, True, 0.663, 0.141222
2023/06/11 04:01:20.288, True, 1.013, 0.141451
2023/06/11 04:01:20.792, True, 0.662, 0.143130
2023/06/11 04:01:21.296, True, 0.664, 0.140917
2023/06/11 04:01:21.792, True, 0.673, 0.142901
2023/06/11 04:01:22.296, True, 0.663, 0.142138
2023/06/11 04:01:22.800, True, 0.663, 0.144808
2023/06/11 04:01:23.296, True, 0.674, 0.141604
2023/06/11 04:01:23.799, True, 0.664, 0.142519
2023/06/11 04:01:24.304, True, 0.662, 0.143664
2023/06/11 04:01:24.800, True, 0.674, 0.143435
2023/06/11 04:01:25.304, True, 0.663, 0.144427
2023/06/11 04:01:25.808, True, 0.664, 0.143435
2023/06/11 04:01:26.304, True, 0.673, 0.145190
2023/06/11 04:01:26.808, True, 0.663, 0.143359
2023/06/11 04:01:27.312, True, 0.663, 0.144732
2023/06/11 04:01:27.808, True, 0.674, 0.143893
2023/06/11 04:01:28.312, True, 0.663, 0.144961
2023/06/11 04:01:28.816, True, 0.663, 0.146334
2023/06/11 04:01:29.312, True, 0.674, 0.147021
2023/06/11 04:01:29.816, True, 0.996, 0.144961
2023/06/11 04:01:30.320, True, 0.662, 0.146258
2023/06/11 04:01:30.816, True, 0.674, 0.146715
2023/06/11 04:01:31.320, True, 0.664, 0.145953
2023/06/11 04:01:31.824, True, 0.662, 0.145953
2023/06/11 04:01:32.320, True, 0.674, 0.148318
2023/06/11 04:01:32.824, True, 0.663, 0.147555
2023/06/11 04:01:33.319, True, 0.674, 0.149233
2023/06/11 04:01:33.824, True, 0.663, 0.149081
2023/06/11 04:01:34.328, True, 0.663, 0.149615
2023/06/11 04:01:34.824, True, 1.011, 0.151064
2023/06/11 04:01:35.328, True, 0.663, 0.147555
2023/06/11 04:01:35.832, True, 0.663, 0.148013
2023/06/11 04:01:36.328, True, 0.674, 0.149157
2023/06/11 04:01:36.832, True, 0.663, 0.148547
2023/06/11 04:01:37.336, True, 0.663, 0.149920
2023/06/11 04:01:37.832, True, 0.674, 0.149844
2023/06/11 04:01:38.336, True, 0.663, 0.148547
2023/06/11 04:01:38.840, True, 0.663, 0.149233
2023/06/11 04:01:39.336, True, 0.674, 0.151827
2023/06/11 04:01:39.840, True, 0.664, 0.151904
2023/06/11 04:01:40.336, True, 0.673, 0.148089
2023/06/11 04:01:40.840, True, 0.663, 0.152056
2023/06/11 04:01:41.344, True, 0.663, 0.151675
2023/06/11 04:01:41.840, True, 0.674, 0.150912
2023/06/11 04:01:42.344, True, 0.663, 0.151980
2023/06/11 04:01:42.848, True, 0.663, 0.152285
2023/06/11 04:01:43.351, True, 0.663, 0.154345
2023/06/11 04:01:43.848, True, 1.011, 0.152743
2023/06/11 04:01:44.351, True, 0.664, 0.153887
2023/06/11 04:01:44.856, True, 0.332, 0.153124
2023/06/11 04:01:45.351, True, 1.009, 0.152361
2023/06/11 04:01:45.856, True, 0.663, 0.151675
2023/06/11 04:01:46.360, True, 0.663, 0.152972
2023/06/11 04:01:46.856, True, 0.674, 0.154574
2023/06/11 04:01:47.360, True, 0.663, 0.150607
2023/06/11 04:01:47.864, True, 0.663, 0.152514
2023/06/11 04:01:48.360, True, 1.011, 0.154574
2023/06/11 04:01:48.863, True, 0.663, 0.153353
2023/06/11 04:01:49.368, True, 0.663, 0.152743
2023/06/11 04:01:49.864, True, 0.674, 0.154421
2023/06/11 04:01:50.368, True, 0.663, 0.153277
2023/06/11 04:01:50.864, True, 0.674, 0.153353
2023/06/11 04:01:51.368, True, 0.663, 0.156100
2023/06/11 04:01:51.871, True, 0.663, 0.155337
2023/06/11 04:01:52.368, True, 0.674, 0.153048
2023/06/11 04:01:52.872, True, 0.663, 0.156939
2023/06/11 04:01:53.376, True, 0.663, 0.159152
2023/06/11 04:01:53.872, True, 0.674, 0.155947
2023/06/11 04:01:54.375, True, 0.663, 0.155795
2023/06/11 04:01:54.880, True, 0.994, 0.157244
2023/06/11 04:01:55.376, True, 0.674, 0.158541
2023/06/11 04:01:55.880, True, 0.663, 0.157015
2023/06/11 04:01:56.384, True, 0.663, 0.156329
2023/06/11 04:01:56.879, True, 0.674, 0.156710
2023/06/11 04:01:57.384, True, 0.664, 0.156252
2023/06/11 04:01:57.887, True, 0.663, 0.156100
2023/06/11 04:01:58.384, True, 0.674, 0.156786
2023/06/11 04:01:58.888, True, 0.664, 0.156405
2023/06/11 04:01:59.391, True, 0.663, 0.155718
2023/06/11 04:01:59.896, True, 0.663, 0.156634
2023/06/11 04:02:00.392, True, 1.011, 0.155947
2023/06/11 04:02:00.895, True, 0.663, 0.157015
2023/06/11 04:02:01.391, True, 0.674, 0.157626
2023/06/11 04:02:01.896, True, 0.663, 0.155718
2023/06/11 04:02:02.399, True, 0.663, 0.157702
2023/06/11 04:02:02.895, True, 0.674, 0.156786
2023/06/11 04:02:03.400, True, 0.663, 0.157702
2023/06/11 04:02:03.903, True, 0.663, 0.156786
2023/06/11 04:02:04.400, True, 0.674, 0.157778
2023/06/11 04:02:04.904, True, 0.663, 0.155413
2023/06/11 04:02:05.408, True, 0.663, 0.155871
2023/06/11 04:02:05.903, True, 0.674, 0.159533
2023/06/11 04:02:06.408, True, 0.663, 0.157168
2023/06/11 04:02:06.912, True, 0.663, 0.158312
2023/06/11 04:02:07.408, True, 0.674, 0.155718
2023/06/11 04:02:07.912, True, 0.663, 0.158160
2023/06/11 04:02:08.408, True, 1.011, 0.155337
2023/06/11 04:02:08.912, True, 0.663, 0.157702
2023/06/11 04:02:09.416, True, 0.663, 0.157168
2023/06/11 04:02:09.912, True, 0.674, 0.157702
2023/06/11 04:02:10.416, True, 0.663, 0.155489
2023/06/11 04:02:10.919, True, 0.663, 0.155413
2023/06/11 04:02:11.424, True, 0.663, 0.157473
2023/06/11 04:02:11.920, True, 0.675, 0.157549
2023/06/11 04:02:12.423, True, 0.662, 0.158312
2023/06/11 04:02:12.928, True, 0.663, 0.156100
2023/06/11 04:02:13.423, True, 0.674, 0.156176
2023/06/11 04:02:13.928, True, 0.663, 0.157397
2023/06/11 04:02:14.432, True, 0.664, 0.157855
2023/06/11 04:02:14.928, True, 0.673, 0.158999
2023/06/11 04:02:15.432, True, 0.663, 0.158083
2023/06/11 04:02:15.936, True, 0.994, 0.155337
2023/06/11 04:02:16.440, True, 0.663, 0.156405
2023/06/11 04:02:16.936, True, 0.674, 0.157626
2023/06/11 04:02:17.439, True, 0.663, 0.157626
2023/06/11 04:02:17.944, True, 0.663, 0.157321
2023/06/11 04:02:18.440, True, 0.674, 0.156252
2023/06/11 04:02:18.944, True, 0.663, 0.156176
2023/06/11 04:02:19.447, True, 0.664, 0.157855
2023/06/11 04:02:19.944, True, 0.673, 0.156939
2023/06/11 04:02:20.448, True, 0.664, 0.154192
2023/06/11 04:02:20.952, True, 0.662, 0.157244
2023/06/11 04:02:21.448, True, 0.674, 0.159838
2023/06/11 04:02:21.952, True, 0.663, 0.156863
2023/06/11 04:02:22.456, True, 0.663, 0.157549
2023/06/11 04:02:22.952, True, 0.674, 0.155795
2023/06/11 04:02:23.455, True, 0.663, 0.157168
2023/06/11 04:02:23.960, True, 0.996, 0.158007
2023/06/11 04:02:24.456, True, 0.673, 0.157626
2023/06/11 04:02:24.960, True, 0.663, 0.156023
2023/06/11 04:02:25.464, True, 0.663, 0.156329
2023/06/11 04:02:25.960, True, 0.674, 0.157321
2023/06/11 04:02:26.463, True, 0.664, 0.157778
2023/06/11 04:02:26.960, True, 0.673, 0.158618
2023/06/11 04:02:27.464, True, 0.663, 0.156329
2023/06/11 04:02:27.967, True, 0.663, 0.157244
2023/06/11 04:02:28.463, True, 0.674, 0.156252
2023/06/11 04:02:28.968, True, 0.663, 0.156329
2023/06/11 04:02:29.472, True, 0.663, 0.156863
2023/06/11 04:02:29.968, True, 0.674, 0.155642
2023/06/11 04:02:30.471, True, 0.995, 0.158923
2023/06/11 04:02:30.976, True, 0.663, 0.157168
2023/06/11 04:02:31.472, True, 0.674, 0.154879
2023/06/11 04:02:31.976, True, 0.663, 0.155566
2023/06/11 04:02:32.479, True, 0.664, 0.154955
2023/06/11 04:02:32.983, True, 0.663, 0.158389
2023/06/11 04:02:33.480, True, 0.673, 0.156558
2023/06/11 04:02:33.984, True, 0.663, 0.155871
2023/06/11 04:02:34.488, True, 0.663, 0.157702
2023/06/11 04:02:34.984, True, 1.011, 0.156710
2023/06/11 04:02:35.488, True, 0.332, 0.155566
2023/06/11 04:02:35.991, True, 0.663, 0.157397
2023/06/11 04:02:36.487, True, 0.674, 0.156023
2023/06/11 04:02:36.992, True, 0.995, 0.156863
2023/06/11 04:02:37.496, True, 0.663, 0.156023
2023/06/11 04:02:37.992, True, 0.673, 0.156939
2023/06/11 04:02:38.495, True, 0.663, 0.155947
2023/06/11 04:02:38.000, True, 0.663, 0.156481
2023/06/11 04:02:39.496, True, 0.674, 0.158312
2023/06/11 04:02:39.999, True, 0.663, 0.156176
2023/06/11 04:02:40.504, True, 0.663, 0.156252
2023/06/11 04:02:40.000, True, 0.674, 0.155337
2023/06/11 04:02:41.503, True, 0.663, 0.155413
2023/06/11 04:02:42.008, True, 0.995, 0.157168
2023/06/11 04:02:42.512, True, 0.663, 0.163195
2023/06/11 04:02:43.008, True, 0.674, 0.155413
2023/06/11 04:02:43.512, True, 0.663, 0.157244
2023/06/11 04:02:44.016, True, 0.663, 0.156939
2023/06/11 04:02:44.512, True, 0.674, 0.155413
2023/06/11 04:02:45.016, True, 0.663, 0.157244
2023/06/11 04:02:45.520, True, 0.663, 0.156252
2023/06/11 04:02:46.015, True, 0.674, 0.154421
2023/06/11 04:02:46.520, True, 0.664, 0.154345
2023/06/11 04:02:47.024, True, 0.994, 0.155718
2023/06/11 04:02:47.520, True, 0.674, 0.158618
2023/06/11 04:02:48.024, True, 0.664, 0.157855
2023/06/11 04:02:48.520, True, 0.674, 0.154421
2023/06/11 04:02:49.024, True, 0.663, 0.156786
2023/06/11 04:02:49.527, True, 0.664, 0.155489
2023/06/11 04:02:50.031, True, 0.663, 0.154574
2023/06/11 04:02:50.528, True, 0.674, 0.155642
2023/06/11 04:02:51.032, True, 0.663, 0.155413
2023/06/11 04:02:51.536, True, 0.664, 0.156023
2023/06/11 04:02:52.032, True, 0.673, 0.155871
2023/06/11 04:02:52.536, True, 0.663, 0.154498
2023/06/11 04:02:53.040, True, 0.663, 0.155413
2023/06/11 04:02:53.536, True, 0.675, 0.154955
2023/06/11 04:02:54.039, True, 0.662, 0.156863
2023/06/11 04:02:54.536, True, 0.674, 0.155871
2023/06/11 04:02:55.040, True, 0.664, 0.154498
2023/06/11 04:02:55.544, True, 0.664, 0.155566
2023/06/11 04:02:56.048, True, 0.663, 0.154269
2023/06/11 04:02:56.544, True, 0.673, 0.161975
2023/06/11 04:02:57.048, True, 0.995, 0.156176
2023/06/11 04:02:57.552, True, 0.663, 0.157321
2023/06/11 04:02:58.056, True, 0.663, 0.155795
2023/06/11 04:02:58.552, True, 0.674, 0.157855
2023/06/11 04:02:59.056, True, 0.663, 0.155566
2023/06/11 04:02:59.560, True, 0.663, 0.156023
2023/06/11 04:03:00.064, True, 0.663, 0.156329
2023/06/11 04:03:00.560, True, 0.674, 0.156558
2023/06/11 04:03:01.064, True, 0.663, 0.154421
2023/06/11 04:03:01.568, True, 0.663, 0.154192
2023/06/11 04:03:02.064, True, 0.674, 0.156100
2023/06/11 04:03:02.567, True, 0.663, 0.155871
2023/06/11 04:03:03.072, True, 0.995, 0.156329
2023/06/11 04:03:03.568, True, 0.674, 0.156405
2023/06/11 04:03:04.072, True, 0.663, 0.153811
2023/06/11 04:03:04.568, True, 0.673, 0.155413
2023/06/11 04:03:05.072, True, 0.663, 0.156023
2023/06/11 04:03:05.576, True, 0.663, 0.155337
2023/06/11 04:03:06.080, True, 0.663, 0.154650
2023/06/11 04:03:06.575, True, 0.674, 0.154192
2023/06/11 04:03:07.080, True, 0.663, 0.154879
2023/06/11 04:03:07.584, True, 0.663, 0.155261
2023/06/11 04:03:08.080, True, 0.674, 0.156481
2023/06/11 04:03:08.584, True, 0.663, 0.154955
2023/06/11 04:03:09.088, True, 0.663, 0.154116
2023/06/11 04:03:09.584, True, 0.674, 0.154726
2023/06/11 04:03:10.088, True, 0.663, 0.155795
2023/06/11 04:03:10.592, True, 0.663, 0.155718
2023/06/11 04:03:11.088, True, 0.674, 0.155489
2023/06/11 04:03:11.591, True, 0.663, 0.157244
2023/06/11 04:03:12.088, True, 0.674, 0.156634
2023/06/11 04:03:12.591, True, 0.997, 0.156939
2023/06/11 04:03:13.096, True, 0.663, 0.157473
2023/06/11 04:03:13.592, True, 0.673, 0.154269
2023/06/11 04:03:14.096, True, 0.663, 0.155032
2023/06/11 04:03:14.600, True, 0.663, 0.155032
2023/06/11 04:03:15.096, True, 0.674, 0.153811
2023/06/11 04:03:15.600, True, 0.663, 0.155795
2023/06/11 04:03:16.104, True, 0.663, 0.156634
2023/06/11 04:03:16.600, True, 0.674, 0.153277
2023/06/11 04:03:17.104, True, 0.663, 0.155108
2023/06/11 04:03:17.608, True, 0.995, 0.154879
2023/06/11 04:03:18.104, True, 0.674, 0.153811
2023/06/11 04:03:18.608, True, 0.663, 0.154421
2023/06/11 04:03:19.111, True, 0.663, 0.155489
2023/06/11 04:03:19.608, True, 0.674, 0.154803
2023/06/11 04:03:20.112, True, 0.663, 0.154803
2023/06/11 04:03:20.616, True, 0.663, 0.154803
2023/06/11 04:03:21.112, True, 0.674, 0.155871
2023/06/11 04:03:21.615, True, 0.663, 0.154803
2023/06/11 04:03:22.120, True, 0.663, 0.154650
2023/06/11 04:03:22.624, True, 0.663, 0.155795
2023/06/11 04:03:23.120, True, 0.674, 0.155718
2023/06/11 04:03:23.624, True, 0.663, 0.155261
2023/06/11 04:03:24.128, True, 0.663, 0.155795
2023/06/11 04:03:24.624, True, 0.674, 0.154879
2023/06/11 04:03:25.128, True, 0.663, 0.155718
2023/06/11 04:03:25.632, True, 0.663, 0.156405
2023/06/11 04:03:26.127, True, 0.675, 0.155795
2023/06/11 04:03:26.632, True, 0.994, 0.155718
2023/06/11 04:03:27.135, True, 0.331, 0.155795
2023/06/11 04:03:27.632, True, 0.674, 0.153811
2023/06/11 04:03:28.136, True, 0.995, 0.155032
2023/06/11 04:03:28.640, True, 0.663, 0.154192
2023/06/11 04:03:29.136, True, 0.674, 0.156176
2023/06/11 04:03:29.640, True, 0.664, 0.154421
2023/06/11 04:03:30.136, True, 0.673, 0.155032
2023/06/11 04:03:30.640, True, 0.663, 0.156329
2023/06/11 04:03:31.144, True, 0.663, 0.155184
2023/06/11 04:03:31.640, True, 0.674, 0.155795
2023/06/11 04:03:32.144, True, 0.663, 0.155489
2023/06/11 04:03:32.648, True, 0.663, 0.154498
2023/06/11 04:03:33.152, True, 0.664, 0.155108
2023/06/11 04:03:33.648, True, 0.673, 0.155108
2023/06/11 04:03:34.152, True, 0.663, 0.153582
2023/06/11 04:03:34.656, True, 0.663, 0.155489
2023/06/11 04:03:35.151, True, 0.674, 0.152438
2023/06/11 04:03:35.655, True, 0.663, 0.154116
2023/06/11 04:03:36.160, True, 0.663, 0.153201
2023/06/11 04:03:36.664, True, 0.663, 0.155642
2023/06/11 04:03:37.160, True, 0.674, 0.155261
2023/06/11 04:03:37.664, True, 0.663, 0.155337
2023/06/11 04:03:38.168, True, 0.663, 0.155108
2023/06/11 04:03:38.664, True, 0.674, 0.155566
2023/06/11 04:03:39.168, True, 0.663, 0.155642
2023/06/11 04:03:39.663, True, 0.674, 0.155413
2023/06/11 04:03:40.167, True, 0.663, 0.154116
2023/06/11 04:03:40.672, True, 0.663, 0.155489
2023/06/11 04:03:41.168, True, 0.674, 0.155566
2023/06/11 04:03:41.672, True, 0.663, 0.152132
2023/06/11 04:03:42.176, True, 0.663, 0.155489
2023/06/11 04:03:42.672, True, 0.674, 0.155413
2023/06/11 04:03:43.176, True, 0.663, 0.155108
2023/06/11 04:03:43.680, True, 0.995, 0.153811
2023/06/11 04:03:44.176, True, 0.674, 0.154726
2023/06/11 04:03:44.680, True, 0.663, 0.154574
2023/06/11 04:03:45.184, True, 0.663, 0.154650
2023/06/11 04:03:45.680, True, 0.674, 0.155337
2023/06/11 04:03:46.184, True, 0.663, 0.155032
2023/06/11 04:03:46.688, True, 0.663, 0.154803
2023/06/11 04:03:47.184, True, 0.674, 0.155108
2023/06/11 04:03:47.688, True, 0.663, 0.154650
2023/06/11 04:03:48.192, True, 0.663, 0.152056
2023/06/11 04:03:48.688, True, 1.011, 0.154192
2023/06/11 04:03:49.192, True, 0.663, 0.153887
2023/06/11 04:03:49.696, True, 0.663, 0.153429
2023/06/11 04:03:50.200, True, 0.663, 0.151751
2023/06/11 04:03:50.696, True, 0.674, 0.153582
2023/06/11 04:03:51.199, True, 0.663, 0.154269
2023/06/11 04:03:51.696, True, 0.674, 0.152209
2023/06/11 04:03:52.200, True, 0.663, 0.154116
2023/06/11 04:03:52.703, True, 0.663, 0.154879
2023/06/11 04:03:53.200, True, 0.674, 0.154116
2023/06/11 04:03:53.704, True, 0.663, 0.152514
2023/06/11 04:03:54.208, True, 0.995, 0.153429
2023/06/11 04:03:54.711, True, 0.663, 0.153277
2023/06/11 04:03:55.208, True, 0.337, 0.154650
2023/06/11 04:03:55.712, True, 0.995, 0.156634
2023/06/11 04:03:56.216, True, 0.663, 0.154345
2023/06/11 04:03:56.712, True, 0.674, 0.155642
2023/06/11 04:03:57.216, True, 0.663, 0.152895
2023/06/11 04:03:57.712, True, 0.674, 0.155261
2023/06/11 04:03:58.216, True, 0.663, 0.155108
2023/06/11 04:03:58.720, True, 0.663, 0.154498
2023/06/11 04:03:59.224, True, 0.663, 0.152895
2023/06/11 04:03:59.720, True, 0.675, 0.153887
2023/06/11 04:04:00.223, True, 0.662, 0.153735
2023/06/11 04:04:00.720, True, 0.674, 0.154040
2023/06/11 04:04:01.224, True, 0.663, 0.155489
2023/06/11 04:04:01.728, True, 0.663, 0.154192
2023/06/11 04:04:02.224, True, 0.674, 0.155032
2023/06/11 04:04:02.728, True, 0.663, 0.150759
2023/06/11 04:04:03.232, True, 0.663, 0.153201
2023/06/11 04:04:03.736, True, 0.663, 0.154116
2023/06/11 04:04:04.231, True, 0.674, 0.153048
2023/06/11 04:04:04.736, True, 0.663, 0.154116
2023/06/11 04:04:05.232, True, 1.011, 0.154650
2023/06/11 04:04:05.736, True, 0.663, 0.154269
2023/06/11 04:04:06.239, True, 0.664, 0.150607
2023/06/11 04:04:06.743, True, 0.663, 0.153506
2023/06/11 04:04:07.239, True, 0.674, 0.154650
2023/06/11 04:04:07.744, True, 0.663, 0.155413
2023/06/11 04:04:08.240, True, 0.674, 0.155413
2023/06/11 04:04:08.743, True, 0.663, 0.153582
2023/06/11 04:04:09.248, True, 0.663, 0.154498
2023/06/11 04:04:09.744, True, 0.674, 0.153353
2023/06/11 04:04:10.247, True, 0.664, 0.154726